Regional Weather Roundup
Issued by NWS

Home | Current Version | Previous Version | Graphics & Text | Print | Product List | Glossary On
Versions: 1 2 3 4 5 6 7 8 9 10 11 12 13 14 15 16 17 18 19 20 21 22 23 24 25 26 27 28 29 30 31 32 33 34 35 36 37 38 39 40 41 42 43 44 45 46 47 48 49 50
000
ASUS43 KLOT 200603
RWRIL

ILLINOIS REGIONAL WEATHER ROUNDUP
NATIONAL WEATHER SERVICE CHICAGO/ROMEOVILLE IL
100 AM CDT SUN AUG 20 2017

NOTE: "FAIR" INDICATES FEW OR NO CLOUDS BELOW 12,000 FEET WITH NO
SIGNIFICANT WEATHER AND/OR OBSTRUCTIONS TO VISIBILITY.

* THESE STATIONS ARE NOT UNDER NWS QUALITY CONTROL. THEY ALSO MAY NOT
  REPORT WEATHER SUCH AS PRECIPITATION OR FOG.

ILZ001-002-007-009-015-016-024-200700-
NORTHWEST ILLINOIS

CITY           SKY/WX    TMP DP  RH WIND       PRES   REMARKS
MOLINE         CLEAR     63  59  87 E5        29.97S
6HR MIN TEMP:  63; 6HR MAX TEMP:  79;

STERLING*      CLEAR     61  60  97 E3        30.00R
SAVANNA*       CLEAR     62  62  99 CALM      29.99R
$$

ILZ003-004-008-010-011-017-018-200700-
NORTH CENTRAL ILLINOIS

CITY           SKY/WX    TMP DP  RH WIND       PRES   REMARKS
ROCKFORD       CLEAR     64  61  90 CALM      30.01R
6HR MIN TEMP:  63; 6HR MAX TEMP:  77;

FREEPORT*      CLEAR     58  57  97 CALM      30.01S
ROCHELLE*      CLEAR     59  57  95 CALM      30.01R
$$

ILZ005-006-012>014-019>023-200700-
NORTHEAST ILLINOIS

CITY           SKY/WX    TMP DP  RH WIND       PRES   REMARKS
CHICAGO-OHARE  CLEAR     68  56  65 CALM      30.00R
6HR MIN TEMP:  67; 6HR MAX TEMP:  80;

CHICAGO-MIDWAY CLEAR     72  56  57 S5        30.00R
6HR MIN TEMP:  72; 6HR MAX TEMP:  79;

AURORA         CLEAR     61  60  97 CALM      30.01R
6HR MIN TEMP:  59; 6HR MAX TEMP:  76;

LANSING*       CLEAR     61  55  81 CALM      30.01S
JOLIET*        CLEAR     63  62  96 CALM      30.01R
WAUKEGAN       CLEAR     62  58  86 CALM      30.00R
6HR MIN TEMP:  60; 6HR MAX TEMP:  73;

DUPAGE AIRPORT CLEAR     62  60  93 CALM      30.00S
6HR MIN TEMP:  62; 6HR MAX TEMP:  76;

WHEELING       CLEAR     64  60  87 CALM      30.02R
6HR MIN TEMP:  64; 6HR MAX TEMP:  77;

MORRIS*        CLEAR     61  59  93 CALM      30.00R
NORTHERLY ISL    N/A     71  53  52 S5          N/A
$$

LMZ740>746-200700-
SOUTHERN LAKE MICHIGAN

STATION/POSITION SKY/WX   TEMP    WIND        PRES    VSBY  WAVE
                          AIR SEA DIR/SP/G                  HT/PER
                          (F)     (DEG/KT/KT) (MB)    (MI)  (FT/S)
SOUTHERN BUOY              72 71  170/  6/  6 1015.6          1
WILMETTE HARBOR            73 73  150/  6/ 10   N/A           1/ 2
HARRISON CRIB              74     190/  8/  8   N/A
CALUMET HARBOR             71     180/  2/  4 1015.4R
BURNS HARBOR               73     150/  3/  7 1016.3
MICHIGAN CITY              67     130/  8/  9   N/A
MICHIGAN CITY 6N           70 75  140/  8/ 10   N/A           1
ST. JOSEPH                 71 76  150/  8/  8 1016.1R         1
$$

ILZ025>027-034>036-040-047-049-050-058-095>099-200700-
WEST-CENTRAL ILLINOIS

CITY           SKY/WX    TMP DP  RH WIND       PRES   REMARKS
QUINCY         CLEAR     70  67  90 SE7       29.96S
GALESBURG*     CLEAR     66  62  86 E3        29.99S
MACOMB*        CLEAR     64  63  96 SE3       30.00S
$$

ILZ028>032-037-038-041>044-048-051>054-059>061-200700-
CENTRAL ILLINOIS

CITY           SKY/WX    TMP DP  RH WIND       PRES   REMARKS
BLOOMINGTON    CLEAR     65  61  87 SE7       30.02R
DECATUR        CLEAR     66  63  90 E5        30.00R
PEORIA         CLEAR     69  64  84 E3        29.99R
6HR MIN TEMP:  68; 6HR MAX TEMP:  82;

LACON*         CLEAR     62  59  91 S3        29.99R
LINCOLN*       PTCLDY    65  65  99 CALM      29.99S
SPRINGFIELD    CLEAR     72  68  87 SE6       29.99R
6HR MIN TEMP:  71; 6HR MAX TEMP:  84;

TAYLORVILLE    NOT AVBL
$$

ILZ033-039-045-046-055>057-062-063-200700-
EAST-CENTRAL ILLINOIS

CITY           SKY/WX    TMP DP  RH WIND       PRES   REMARKS
CHAMPAIGN      CLEAR     65  61  87 E5        30.01R
RANTOUL*       CLEAR     69  65  86 CALM      30.01R
MATTOON        CLEAR     70  68  93 CALM      29.99S
$$

ILZ079-100>102-200700-
SOUTHWEST ILLINOIS

CITY           SKY/WX    TMP DP  RH WIND       PRES   REMARKS
ALTON          MOCLDY    70  70  99 CALM      29.98S
BELLEVILLE     CLEAR     73  69  88 CALM      29.99R
CAHOKIA*       CLEAR     74  68  81 CALM      29.97R
SPARTA*        CLEAR     75  70  84 S5        29.99R
$$

ILZ064>066-069>071-074>076-080>082-084>086-088>090-092>094-200700-
SOUTH-CENTRAL ILLINOIS

CITY           SKY/WX    TMP DP  RH WIND       PRES   REMARKS
CARBONDALE     MOCLDY    74  72  93 CALM      29.99R
6HR MIN TEMP:  72; 6HR MAX TEMP:  84;

EFFINGHAM*     CLEAR     67  67 100 CALM      30.01S
MARION         CLEAR     73  73 100 CALM      30.00S
MT. VERNON       N/A     67  67 100 CALM      29.99R FOG
CENTRALIA*     PTCLDY    70  70  99 CALM      29.99R
SALEM*         CLEAR     70  67  92 CALM      29.99R
METROPOLIS*    PTCLDY    71  69  96 CALM      30.00R
$$

ILZ067-068-072-073-078-083-087-091-200700-
SOUTHEAST ILLINOIS

CITY           SKY/WX    TMP DP  RH WIND       PRES   REMARKS
LAWRENCEVILLE  CLEAR     72  69  90 CALM      29.99S
FLORA*         PTCLDY    71  69  93 CALM      29.99S
FAIRFIELD*     CLEAR     69  69  99 CALM      29.99R
HARRISBURG*    PTCLDY    70  69  97 CALM      30.00R
ROBINSON*      FOG       64  64 100 CALM      30.01S VSB 3/4
CARMI*         CLEAR     67  67 100 CALM      29.99R
$$

ABBREVIATIONS USED IN REMARKS
   TC - TEMPERATURE IN CELSIUS
  WCI - WIND CHILL INDEX
   HX - HEAT INDEX
  VSB - VISIBILITY
$$





USA.gov is the U.S. government's official web portal to all federal, state and local government web resources and services.